Regional Weather Roundup
Issued by NWS

Home | Current Version | Previous Version | Graphics & Text | Print | Product List | Glossary On
Versions: 1 2 3 4 5 6 7 8 9 10 11 12 13 14 15 16 17 18 19 20 21 22 23 24 25 26 27 28 29 30 31 32 33 34 35 36 37 38 39 40 41 42 43 44 45 46 47 48 49 50
000
ASUS43 KOAX 210310
RWRNE

WEATHER ROUNDUP FOR NEBRASKA
NATIONAL WEATHER SERVICE OMAHA NE
900 PM CST THU NOV 20 2014

NOTES: SATELLITE DATA IS BEING USED TO AUGMENT CLOUD COVER ABOVE
       12000 FEET.
       "FAIR" INDICATES FEW OR NO CLOUDS BELOW 12,000 FEET WITH NO
       SIGNIFICANT WEATHER AND/OR OBSTRUCTIONS TO VISIBILITY.

  * THESE STATIONS DO NOT REPORT WEATHER SUCH AS RAIN...SNOW OR FOG.

NEZ001>004-019>022-054>056-210400-
NEBRASKA PANHANDLE

CITY           SKY/WX    TMP DP  RH WIND       PRES   REMARKS
SCOTTSBLUFF    PTCLDY    27  17  66 E5        29.94F WCI  22
ALLIANCE       PTCLDY    29  19  66 SE7       29.94S WCI  22
CHADRON        CLEAR     23  19  85 CALM      29.93F
KIMBALL        PTCLDY    29  14  52 W5        29.96S WCI  24
SIDNEY         PTCLDY    33  17  51 S10       29.98S WCI  25
$$

NEZ057>060-069>072-079>082-210400-
SOUTHWEST NEBRASKA

CITY           SKY/WX    TMP DP  RH WIND       PRES   REMARKS
NORTH PLATTE   CLEAR     22  17  81 E9        30.04F WCI  12
IMPERIAL       PTCLDY    25  16  68 SE10      30.02S WCI  15
LEXINGTON      CLEAR     28  20  70 SE8       30.09S WCI  20
MCCOOK         PTCLDY    27  18  69 E8        30.07S WCI  19
OGALLALA       CLEAR     32  22  66 SE6       30.01S WCI  26
$$

NEZ005>010-023>029-035>040-094-210400-
NORTH CENTRAL NEBRASKA

CITY           SKY/WX    TMP DP  RH WIND       PRES   REMARKS
VALENTINE      PTCLDY    16  14  92 NE7       30.00F WCI   6
AINSWORTH      PTCLDY    27  20  77 S10       30.02S WCI  17
BROKEN BOW     CLEAR     23  17  78 SE6       30.08R WCI  16
O`NEILL        PTCLDY    20  17  91 S10       30.11R WCI   8
ORD            MOCLDY    22  18  85 SE6       30.11S WCI  14
THEDFORD       CLEAR     29  22  74 S8        30.03S WCI  21
$$

NEZ041-046>049-061>064-073>077-083>087-210400-
SOUTH CENTRAL NEBRASKA

CITY           SKY/WX    TMP DP  RH WIND       PRES   REMARKS
GRAND ISLAND   PTCLDY    24  18  77 SE9       30.15S WCI  14
AURORA         PTCLDY    20  17  86 SE8       30.16R WCI  11
HASTINGS       CLEAR     26  19  74 SE13      30.13S WCI  15
HEBRON         PTCLDY    24  18  76 E3        30.18R
HOLDREGE       CLEAR     21  15  76 SE6       30.10S WCI  14
KEARNEY *      PTCLDY    21  16  79 E6        30.13S WCI  14
YORK           PTCLDY    23  19  86 SE8       30.17S WCI  14
$$

NEZ011>018-030>034-042>045-210400-
NORTHEAST NEBRASKA

CITY           SKY/WX    TMP DP  RH WIND       PRES   REMARKS
NORFOLK        PTCLDY    19  14  81 SE8       30.17S WCI   9
ALBION         CLEAR     18  14  84 SE5       30.15S WCI  11
BLAIR          PTCLDY    20  15  81 E7        30.22S WCI  11
COLUMBUS *     PTCLDY    18  10  73 E5        30.20R WCI  11
FREMONT        CLEAR     22  17  82 CALM      30.22S
TEKAMAH        PTCLDY    16  13  88 S5        30.24S WCI   9
WAYNE          PTCLDY    15  11  86 SE6       30.20S WCI   6
$$

NEZ050>053-065>068-078-088>093-210400-
SOUTHEAST NEBRASKA

CITY           SKY/WX    TMP DP  RH WIND       PRES   REMARKS
LINCOLN        PTCLDY    22  15  75 E3        30.23R
OMAHA EPPLEY   PTCLDY    22  15  75 E3        30.26R
BEATRICE       PTCLDY    23  17  78 E3        30.20S
FALLS CITY     PTCLDY    22  16  78 E6        30.24R WCI  14
NEBRASKA CITY  PTCLDY    21  15  76 E5        30.24R WCI  15
PLATTSMOUTH    PTCLDY    20  15  81 E5        30.24R WCI  14
$$

NEZ044-045-051>053-067-210400-
OMAHA AREA

CITY           SKY/WX    TMP DP  RH WIND       PRES   REMARKS
OMAHA EPPLEY   PTCLDY    22  15  75 E3        30.26R
BLAIR          PTCLDY    20  15  81 E7        30.22S WCI  11
FREMONT        CLEAR     22  17  82 CALM      30.22S
MILLARD        CLEAR     23  17  77 CALM      30.24S
OFFUTT AFB     CLEAR     19  15  86 E5        30.24S WCI  12
PLATTSMOUTH    PTCLDY    20  15  81 E5        30.24R WCI  14
WAHOO          FAIR      17  12  83 E5        30.22S WCI  10
$$


USA.gov is the U.S. government's official web portal to all federal, state and local government web resources and services.